Regional Weather Roundup
Issued by NWS

Home | Current Version | Previous Version | Graphics & Text | Print | Product List | Glossary Off
Versions: 1 2 3 4 5 6 7 8 9 10 11 12 13 14 15 16 17 18 19 20 21 22 23 24 25 26 27 28 29 30 31 32 33 34 35 36 37 38 39 40 41 42 43 44 45 46 47 48 49 50

000
ASUS43 KDTX 010110
RWRMI
MICHIGAN HOURLY REGIONAL WEATHER ROUNDUP
NATIONAL WEATHER SERVICE DETROIT/PONTIAC MI
800 PM EST SAT JAN 31 2015

NOTE: "FAIR" INDICATES FEW OR NO CLOUDS BELOW 12,000 FEET WITH NO
SIGNIFICANT WEATHER AND/OR OBSTRUCTION TO VISIBILITY.

MIZ047>049-052>055-059>063-066>070-074>076-081>083-010200-
SOUTHEAST LOWER MICHIGAN

CITY           SKY/WX    TMP DP  RH WIND       PRES   REMARKS
ADRIAN         MOCLDY    29  24  82 SW5       30.19S
ALMA           CLOUDY    31  26  83 NW3       30.18S
ANN ARBOR      CLOUDY    33  23  66 SW6       30.17S
BAD AXE        CLOUDY    28  24  87 NW3       30.18R
DETROIT CITY   CLOUDY    35  23  61 SW7       30.18S
DETROIT        CLOUDY    33  24  69 S9        30.19R
FLINT          CLOUDY    33  23  66 W3        30.17F
GROSSE ILE     CLOUDY    32  27  80 S6        30.18S
HILLSDALE      CLOUDY    31  22  69 CALM      30.16S
HOWELL         CLOUDY    32  22  68 CALM      30.16S

CITY           SKY/WX    TMP DP  RH WIND       PRES   REMARKS
JACKSON        CLOUDY    32  22  66 CALM      30.16S
LAMBERTVILLE   MOCLDY    32  27  80 S3        30.20S
LANSING        CLOUDY    32  24  72 W3        30.17S
LAPEER         NOT AVBL
MASON          CLOUDY    32  22  67 CALM      30.16S
MONROE         MOCLDY    30  25  80 S5        30.18S
MT. CLEMENS    CLOUDY    33  23  69 W2        30.16S
PONTIAC        CLOUDY    31  20  63 CALM      30.15S
PORT HOPE        N/A     29  21  72 W8        30.17R
PORT HURON     CLOUDY    28  23  80 CALM      30.18F
TRI CITIES     CLOUDY    32  23  69 NW8       30.19R
YPSILANTI      CLOUDY    35  25  66 SW8       30.18S
$$
MIZ043>046-050>051-056>058-064>065-071>073-077>080-010200-
SOUTHWEST LOWER MICHIGAN

CITY           SKY/WX    TMP DP  RH WIND       PRES   REMARKS
BATTLE CREEK   CLOUDY    31  22  69 W5        30.16F
BENTON HARBOR  CLOUDY    31  27  85 CALM      30.18F
BIG RAPIDS     CLOUDY    28  25  91 N7        30.17S
COLDWATER      MOCLDY    31  25  78 SW3       30.16S
HOLLAND        CLOUDY    32  24  72 NW3       30.19S
GRAND RAPIDS   CLOUDY    31  24  75 NW6       30.18R
KALAMAZOO      CLOUDY    28  21  75 CALM      30.17F
MARSHALL       CLOUDY    26  21  82 CALM      30.16S
MUSKEGON       CLOUDY    31  23  72 N6        30.19S
$$
MIZ016>042-010200-
NORTHERN LOWER MICHIGAN

CITY           SKY/WX    TMP DP  RH WIND       PRES   REMARKS
ALPENA         FLURRIES  23  16  74 NW13      30.20R
BEAVER ISLAND  CLOUDY    18  13  82 CALM      30.27R
BELLAIRE       CLOUDY    22  13  68 N6        30.25R
CADILLAC       CLOUDY    24  19  81 N7        30.16R
CHARLEVOIX     PTCLDY    19  13  76 N12G20    30.28R
FRANKFORT      CLOUDY    25  19  79 N10G16    30.23R
GAYLORD        FLURRIES  19  15  84 NW8       30.18R
GRAYLING       LGT SNOW  21  17  83 N9        30.19R
HARBOR SPRINGS PTCLDY    18   9  69 N9        30.25R
HOUGHTON LAKE  CLOUDY    24  18  77 NW5       30.17S
MANISTEE       CLOUDY    27  18  69 N9        30.22S
OSCODA         CLOUDY    26  19  72 W6        30.18S
PELLSTON       MOCLDY    17   8  67 NW13      30.26R
TRAVERSE CITY  LGT SNOW  24  17  74 N15G24    30.23R
$$
MIZ007>008-015-010200-
EASTERN UPPER MICHIGAN

CITY           SKY/WX    TMP DP  RH WIND       PRES   REMARKS
KINROSS        PTCLDY    12   9  85 N15G22    30.21R WCI  -4
MACKINAC ISLAN CLOUDY    17   9  68 NW13G18   30.23R
NEWBERRY       CLOUDY    15   8  73 N8        30.24R
S. S. MARIE    CLOUDY    13   4  67 NW10      30.22R WCI   0
$$
MIZ004>006-011>014-085-010200-
CENTRAL UPPER MICHIGAN

CITY           SKY/WX    TMP DP  RH WIND       PRES   REMARKS
MANISTIQUE     CLOUDY    16   8  71 NW10      30.28R
ESCANABA       MOCLDY    16   9  73 N7        30.30R
MENOMINEE      CLOUDY    21  12  68 NE14      30.26R
SAWYER-GWINN   LGT SNOW  10   7  85 N12       30.28R WCI  -4
$$
MIZ001>003-009>011-084-010200-
WESTERN UPPER MICHIGAN

CITY           SKY/WX    TMP DP  RH WIND       PRES   REMARKS
IRON MOUNTAIN  MOCLDY    11   4  73 N8        30.25R
HOUGHTON       CLOUDY     8  -1  66 N10       30.34R WCI  -6
COPPER HARBOR    N/A     11   5  77 NE17G31   30.37R WCI  -6
IRONWOOD       CLOUDY    14   7  73 NE7       30.27R
$$

ABBREVIATIONS USED IN REMARKS
   TC - TEMPERATURE IN CELSIUS
  WCI - WIND CHILL INDEX
   HX - HEAT INDEX
  VSB - VISIBILITY




USA.gov is the U.S. government's official web portal to all federal, state and local government web resources and services.